Content
SEND FEEDBACK

Daily
Averages
Monthly
Summary
United States of America

FISH LAKE, ALASKA


Home > North America > United States > Alaska
Elevation: 200 feet     Latitude: 65 10N     Longitude: 152 06W

WEATHER
 
SELECT A DAY
Number of Records: 186,043;   Date Range: 1/1/95 - 12/25/14
 
SHARE

PRINT THIS DATA

[ ← Previous Day ]
WEATHER ALMANAC - FEBRUARY 13, 2013
[ Next Day → ]
[ °C ]   °F
Weather ElementAverageHighLow
Temperature4.9 °F7 °F (1:52 pm)3 °F (1:52 am)
Dewpoint-1.1 °F (2:52 am)-2.9 °F (6:52 pm)
Humidity76 %84 % (1:52 am)70 % (2:52 pm)
Barometer29.84 in29.86 in (9:52 am)29.82 in (9:52 pm)
Wind Speed6.6 mph12.7 mph (1:52 pm)
Wind Gust16.1 mph (12:52 pm)
Weather ElementAverage
Visibility10 mi
Wind DirectionENE (76.1 °)

Weather ElementTotal
Precipitation---
Heating Degree Days60 (Base 65)
Averaged from 23 records on February 13, 2013
WEATHER CONDITIONS BREAKOUT
WIND DIRECTION BREAKOUT
WEATHER BY HOUR - FEBRUARY 13, 2013
[ °C ]   °F
Local TimeTemperatureDewpointHumidityBarometerVisibilityWind DirectionWind SpeedGust SpeedPrecipitationEventsConditions
1:52 AM3.0 °F-0.9 °F84 %29.85 in10.0 miNE (50°)9.2 mphClear
2:52 AM5.0 °F0.0 °F80 %29.84 in10.0 miNE (40°)8.1 mphPartly Cloudy
3:52 AM5.0 °F0.0 °F80 %29.84 in10.0 miNE (50°)5.8 mphOvercast
4:52 AM5.0 °F0.0 °F80 %29.85 in10.0 miENE (60°)5.8 mphOvercast
5:52 AM3.9 °F-0.9 °F80 %29.84 in10.0 miEast (90°)5.8 mphOvercast
6:52 AM5.0 °F-0.9 °F76 %29.84 in10.0 miNE (50°)8.1 mphOvercast
7:52 AM5.0 °F0.0 °F80 %29.84 in10.0 miENE (60°)11.5 mphOvercast
8:52 AM5.0 °F0.0 °F80 %29.84 in10.0 miCalmOvercast
9:52 AM3.9 °F-2.0 °F76 %29.86 in10.0 miCalmMostly Cloudy
10:52 AM3.9 °F-0.9 °F80 %29.86 in10.0 miNE (50°)8.1 mphScattered Clouds
11:52 AM5.0 °F-2.0 °F73 %29.86 in10.0 miENE (70°)6.9 mphMostly Cloudy
12:52 PM6.1 °F-0.9 °F73 %29.86 in10.0 miENE (60°)10.4 mph16.1 mphMostly Cloudy
1:52 PM7.0 °F0.0 °F73 %29.85 in10.0 miENE (70°)12.7 mphMostly Cloudy
2:52 PM7.0 °F-0.9 °F70 %29.85 in10.0 miEast (90°)3.5 mphScattered Clouds
3:52 PM7.0 °F0.0 °F73 %29.83 in10.0 miEast (90°)5.8 mphScattered Clouds
4:52 PM3.9 °F-2.0 °F76 %29.83 in10.0 miEast (80°)4.6 mphScattered Clouds
5:52 PM5.0 °F-2.0 °F73 %29.83 in10.0 miWSW (250°)3.5 mphScattered Clouds
6:52 PM3.0 °F-2.9 °F76 %29.83 in10.0 miSouth (180°)3.5 mphMostly Cloudy
7:52 PM5.0 °F-2.0 °F73 %29.84 in10.0 miENE (60°)5.8 mphMostly Cloudy
8:52 PM5.0 °F-2.0 °F73 %29.83 in10.0 miEast (90°)9.2 mphOvercast
9:52 PM5.0 °F-2.0 °F73 %29.82 in10.0 miENE (70°)9.2 mphOvercast
10:52 PM5.0 °F-2.0 °F73 %29.83 in10.0 miEast (100°)6.9 mphOvercast
11:52 PM5.0 °F-2.0 °F73 %29.83 in10.0 miEast (90°)6.9 mphOvercast
Hourly data recorded from PATA, located miles away from Fish Lake, Alaska







STORIES FROM OUR PARTNERS